DW4219 Weather Reports


Display with metric or nautical units.
time (UTC)temp
F
wind
direction
speed
MPH
gust
MPH
rain 1hr
in
rain 24hr
in
rain mn
in
humidity
%
barometer
mb
20260509094544 48 260 1.0 5.0 0.00 0.00 0.00 37 1010.7
20260509093043 50 217 0.0 2.0 0.00 0.00 0.00 35 1010.6
20260509091549 51 1 2.0 5.0 0.00 0.00 0.00 32 1010.6
20260509090044 48 235 0.0 4.0 0.00 0.00 0.00 38 1010.2
20260509084544 49 290 1.0 4.0 0.00 0.00 0.00 38 1009.9
20260509083035 49 216 1.0 4.0 0.00 0.00 0.00 37 1010.0
20260509081534 49 227 2.0 6.0 0.00 0.00 0.00 40 1009.9
20260509080030 50 214 0.0 1.0 0.00 0.00 0.00 38 1009.8
20260509074525 51 109 1.0 2.0 0.00 0.00 0.00 35 1009.8
20260509073032 52 240 1.0 4.0 0.00 0.00 0.00 32 1009.7
20260509071521 52 210 1.0 4.0 0.00 0.00 0.00 33 1009.6
20260509070018 53 215 0.0 3.0 0.00 0.00 0.00 32 1009.5
20260509064516 54 122 0.0 3.0 0.00 0.00 0.00 29 1009.6
20260509063014 55 301 0.0 4.0 0.00 0.00 0.00 28 1009.5
20260509061508 57 233 1.0 4.0 0.00 0.00 0.00 26 1009.2
20260509060006 56 185 3.0 5.0 0.00 0.00 0.00 27 1009.2
20260509054508 56 206 2.0 4.0 0.00 0.00 0.00 28 1009.2
20260509053005 56 211 2.0 4.0 0.00 0.00 0.00 28 1009.2
20260509051503 58 206 2.0 5.0 0.00 0.00 0.00 26 1009.2
20260509050004 58 211 2.0 4.0 0.00 0.00 0.00 25 1009.2
20260509044503 58 227 0.0 3.0 0.00 0.00 0.00 26 1009.1
20260509043002 60 224 1.0 4.0 0.00 0.00 0.00 25 1008.9
20260509041505 62 188 1.0 4.0 0.00 0.00 0.00 23 1008.7
20260509040002 64 194 1.0 4.0 0.00 0.00 0.00 22 1008.5
20260509034501 65 154 3.0 5.0 0.00 0.00 0.00 20 1008.4
20260509033101 66 165 2.0 5.0 0.00 0.00 0.00 20 1008.2
20260509031700 69 160 1.0 4.0 0.00 0.00 0.00 19 1008.1
20260509030100 72 219 1.0 2.0 0.00 0.00 0.00 15 1007.8
20260509024558 74 257 0.0 3.0 0.00 0.00 0.00 14 1007.7
20260509023058 76 278 3.0 7.0 0.00 0.00 0.00 12 1007.5
20260509021557 78 255 3.0 10.0 0.00 0.00 0.00 12 1007.4
20260509020056 80 300 4.0 10.0 0.00 0.00 0.00 11 1007.1
20260509014557 81 287 5.0 12.0 0.00 0.00 0.00 11 1007.1
20260509013056 81 302 4.0 11.0 0.00 0.00 0.00 11 1007.1
20260509011603 82 292 5.0 10.0 0.00 0.00 0.00 11 1007.2
20260509010052 82 290 6.0 11.0 0.00 0.00 0.00 10 1007.2
20260509004606 83 306 5.0 9.0 0.00 0.00 0.00 11 1007.2
20260509003050 83 248 6.0 17.0 0.00 0.00 0.00 10 1007.3
20260509001548 83 287 5.0 17.0 0.00 0.00 0.00 11 1007.3
20260509000047 83 288 6.0 15.0 0.00 0.00 0.00 11 1007.5
20260508234544 83 336 7.0 12.0 0.00 0.00 0.00 11 1007.6
20260508233044 83 258 5.0 16.0 0.00 0.00 0.00 10 1007.6
20260508231540 83 251 4.0 13.0 0.00 0.00 0.00 10 1007.7
20260508230038 83 289 8.0 14.0 0.00 0.00 0.00 11 1007.8
20260508224538 83 250 10.0 15.0 0.00 0.00 0.00 11 1007.9
20260508223042 83 251 6.0 12.0 0.00 0.00 0.00 12 1008.1
20260508221532 83 243 7.0 13.0 0.00 0.00 0.00 12 1008.3
20260508220033 83 288 5.0 14.0 0.00 0.00 0.00 12 1008.5
20260508214537 83 243 10.0 18.0 0.00 0.00 0.00 12 1008.8
20260508213033 82 264 8.0 12.0 0.00 0.00 0.00 13 1009.0
20260508211524 82 224 7.0 12.0 0.00 0.00 0.00 13 1009.2
20260508210024 82 241 10.0 18.0 0.00 0.00 0.00 13 1009.4
20260508204530 82 295 5.0 13.0 0.00 0.00 0.00 13 1009.6
20260508203021 81 224 5.0 13.0 0.00 0.00 0.00 12 1009.6
20260508201520 81 302 7.0 12.0 0.00 0.00 0.00 13 1009.8
20260508200019 81 315 7.0 13.0 0.00 0.00 0.00 14 1009.9
20260508194516 80 266 6.0 12.0 0.00 0.00 0.00 13 1010.0
20260508193015 81 221 4.0 12.0 0.00 0.00 0.00 14 1010.1
20260508191514 80 215 4.0 12.0 0.00 0.00 0.00 14 1010.3
20260508190012 80 38 3.0 6.0 0.00 0.00 0.00 18 1010.6
20260508184506 79 18 3.0 6.0 0.00 0.00 0.00 18 1010.7
20260508183006 79 89 5.0 12.0 0.00 0.00 0.00 18 1010.9
20260508181503 78 88 3.0 8.0 0.00 0.00 0.00 20 1011.1
20260508180003 77 63 8.0 13.0 0.00 0.00 0.00 20 1011.3
20260508174604 77 27 4.0 9.0 0.00 0.00 0.00 21 1011.3
20260508173058 77 54 4.0 11.0 0.00 0.00 0.00 20 1011.5
20260508171556 76 99 3.0 9.0 0.00 0.00 0.00 21 1011.5
20260508170054 76 210 2.0 8.0 0.00 0.00 0.00 20 1011.5
20260508164552 75 46 2.0 5.0 0.00 0.00 0.00 22 1011.9
20260508163001 75 20 1.0 5.0 0.00 0.00 0.00 21 1012.0
20260508161559 74 328 3.0 6.0 0.00 0.00 0.00 22 1012.1
20260508160130 74 198 0.0 2.0 0.00 0.00 0.00 24 1012.2
20260508154558 74 84 0.0 2.0 0.00 0.00 0.00 22 1012.3
20260508153054 73 212 0.0 3.0 0.00 0.00 0.00 23 1012.6
20260508151552 71 235 1.0 3.0 0.00 0.00 0.00 23 1012.7
20260508150047 69 214 0.0 1.0 0.00 0.00 0.00 29 1012.9
20260508144543 63 217 0.0 2.0 0.00 0.00 0.00 33 1013.1
20260508143055 59 237 0.0 2.0 0.00 0.00 0.00 36 1013.2
20260508141549 57 285 0.0 1.0 0.00 0.00 0.00 37 1013.3
20260508140040 53 261 0.0 1.0 0.00 0.00 0.00 41 1013.3
20260508134536 51 242 0.0 3.0 0.00 0.00 0.00 46 1013.2
20260508133043 49 253 0.0 1.0 0.00 0.00 0.00 47 1013.2
20260508131535 47 256 0.0 2.0 0.00 0.00 0.00 46 1013.2
20260508130034 46 229 2.0 3.0 0.00 0.00 0.00 46 1013.1
20260508124533 45 269 0.0 4.0 0.00 0.00 0.00 47 1012.9
20260508123033 44 266 1.0 2.0 0.00 0.00 0.00 49 1012.9
20260508121551 44 224 0.0 1.0 0.00 0.00 0.00 50 1012.8
20260508120031 45 254 0.0 1.0 0.00 0.00 0.00 46 1012.7
20260508114527 45 288 0.0 3.0 0.00 0.00 0.00 44 1012.7
20260508113025 44 248 1.0 3.0 0.00 0.00 0.00 48 1012.6
20260508111522 45 247 0.0 1.0 0.00 0.00 0.00 48 1012.6
20260508110020 45 243 0.0 1.0 0.00 0.00 0.00 47 1012.8
20260508104520 45 251 0.0 1.0 0.00 0.00 0.00 46 1012.8
20260508103016 46 254 0.0 1.0 0.00 0.00 0.00 46 1012.9
20260508101511 48 221 0.0 2.0 0.00 0.00 0.00 42 1012.9
20260508100009 50 231 0.0 2.0 0.00 0.00 0.00 37 1013.1